Location: CARMA
(37.2805°N, 118.1419°W)
Time: 00:15:30
(UTC-08:00)

Daily predictions for brighter satellites

Satellite Brightness Start Highest point End
(mag) Time Altitude Azimuth Time Altitude Azimuth Time Altitude Azimuth
Milstar 3 Cent rocket 4.3 04:14:38 27° SSW 04:15:39 28° S 04:25:31 10° SE
Lacrosse 5 rocket 3.3 04:24:33 27° SSE 04:24:33 27° SSE 04:26:39 10° SE
RESURS DK-1 3.9 04:26:25 34° E 04:26:25 34° E 04:29:25 10° SE
CZ-4C R/B 2.8 04:24:27 39° SSE 04:25:53 51° ESE 04:31:22 10° NE
Cosmos 1697 Rocket 3.1 04:30:02 53° S 04:30:02 53° S 04:34:16 10° SSE
Cosmos 2082 Rocket 4.3 04:34:11 14° N 04:34:11 14° N 04:35:02 10° N
Cosmos 2279 Rocket 3.8 04:30:54 59° N 04:32:13 90° WSW 04:38:25 10° S
Cosmos 2180 Rocket 4.4 04:48:09 24° NNW 04:52:12 77° W 04:58:26 10° S
Meteor 2-20 4.3 04:49:40 10° SSW 04:55:46 77° W 05:01:52 10° N
USA 267 4.0 04:52:53 10° NNE 04:58:30 32° NNW 04:58:45 32° NW
SKYMED 2 3.6 05:04:22 10° SSE 05:08:40 79° ENE 05:11:23 23° N
Cosmos 1980 Rocket 2.2 05:07:11 41° NW 05:09:02 62° WSW 05:14:37 10° S
PAYLOAD A 4.2 05:06:15 10° NNE 05:11:42 80° ESE 05:17:01 10° S
OAO 2 Rocket 4.5 05:11:22 28° SW 05:12:37 31° SSW 05:17:12 10° SE
SeaSat 1 3.6 05:16:09 10° N 05:18:53 24° NNW 05:18:53 24° NNW
Nadezhda 4 Rocket 3.9 05:15:23 10° SSW 05:21:26 61° W 05:27:30 10° N
NOAA 6 4.0 05:19:26 10° N 05:24:29 59° WNW 05:29:32 10° SSW
MSX 4.1 05:23:59 10° NNE 05:29:44 70° ESE 05:35:25 10° S
USA 234 3.2 05:25:16 10° SE 05:31:51 88° SW 05:36:56 18° NW
Meteor 2-4 Rocket 4.1 05:31:07 20° NW 05:34:28 40° W 05:39:36 10° SSW
Okean 1-7 Rocket 4.3 05:32:18 10° N 05:36:47 58° E 05:41:16 10° SSE
CZ-2C R/B 2.2 05:34:20 10° N 05:39:11 78° WNW 05:43:50 10° SSW
Cosmos 1300 Rocket 4.1 05:35:42 10° SW 05:39:37 34° WNW 05:43:34 10° NNW
BREEZE-M DEB (TANK) 2.5 05:41:20 35° NW 05:41:28 35° NNW 05:44:29 10° NE
Cosmos 773 Rocket 4.2 05:39:14 10° SW 05:44:05 43° WNW 05:49:00 10° N
IDEFIX/ARIANE 42P 2.7 05:42:06 10° N 05:47:07 49° WNW 05:52:07 10° SW
DMSP B5D1-3 4.5 05:42:37 10° S 05:47:44 67° WSW 05:52:52 10° NNW
SL-16 R/B 2.2 05:42:29 10° NNW 05:48:11 88° WSW 05:53:50 10° SSE
EO 1 Del DPAF 3.8 05:45:05 10° SSW 05:48:37 35° W 05:50:58 18° NW
Cosmos 1025 Rocket 2.9 05:46:10 10° NNW 05:50:25 71° W 05:54:41 10° S
Cosmos 1484 Rocket 3.6 05:47:32 10° NNE 05:51:21 53° E 05:55:04 10° S
Cosmos 1743 4.0 05:47:54 10° SSE 05:51:30 42° E 05:55:07 10° NNE
Cosmos 1680 Rocket 3.5 05:46:53 10° SSW 05:52:05 87° ESE 05:57:19 10° NNE
Cosmos 2322 Rocket 2.2 05:48:38 10° NNW 05:54:20 81° WSW 06:00:00 10° SSE
COSMO-SKYMED 1 3.5 05:53:06 10° SSW 05:56:49 28° W 05:59:58 13° NW
Cosmos 1092 Rocket 4.3 05:56:03 10° SSW 06:01:46 41° WNW 06:07:33 10° N
CSL-04 Rocket 4.2 05:56:39 10° NNE 06:02:11 67° ESE 06:07:40 10° S
Okean-O 3.7 05:58:43 10° NNW 06:02:11 23° WNW 06:05:38 10° WSW
RESURS DK-1 4.1 06:02:23 14° W 06:03:14 15° WSW 06:05:38 10° SW
Meteor 1-4 Rocket 3.6 06:03:39 10° SW 06:06:55 27° WNW 06:10:13 10° NNW
Thor Agena Rocket 3.5 06:05:50 10° S 06:10:52 78° WSW 06:15:58 10° NNW
Cosmos 1500 4.1 06:08:56 10° SW 06:12:18 28° WNW 06:15:40 10° NNW
Cosmos 1655 Rocket 4.0 06:06:04 10° S 06:12:18 83° W 06:18:37 10° N
Okean 1 Rocket 4.1 06:10:14 10° SW 06:13:47 24° WNW 06:17:22 10° NNW
CZ-4C R/B 3.2 06:10:28 10° W 06:14:45 24° NW 06:19:30 10° N
CZ-4 R/B 2.0 06:11:38 10° NNE 06:15:48 64° E 06:19:59 10° S
Cosmos 2026 Rocket 4.1 06:10:37 10° SSW 06:16:41 53° W 06:22:53 10° N
BREEZE-M DEB (TANK) 3.1 06:15:43 11° W 06:17:48 33° NNW 06:21:37 10° NE
Cosmos 1833 4.1 06:13:12 10° SSW 06:18:46 76° WNW 06:24:23 10° NNE
Cosmos 1271 Rocket 2.8 06:16:56 10° S 06:20:41 77° E 06:24:27 10° NNE
Cosmos 1553 Rocket 4.0 06:20:32 10° N 06:26:47 84° W 06:32:55 10° S
AQUARIUS 4.1 06:23:56 10° N 06:28:25 70° WNW 06:32:52 10° SSW
YAOGAN 1 2.9 06:32:02 10° NNE 06:36:21 74° E 06:40:40 10° S
Cosmos 1892 Rocket 3.7 06:32:05 10° NNW 06:36:24 56° W 06:40:38 10° S
